STARLINK-1204 (45203 NORAD) Tracking and Keplerian Element Data

This shows tracking and keplerian element data for the satellite.

Feedback or suggestion? Click here.




ElementValue
Catalog45203
NameSTARLINK-1204
Epoch Orbit162
Epoch Day93.91667824
Epoch Year2020
RAAN44.5726
Inclination52.9998
Eccentricity0.00013
Argument of Perigee65.6398
Mean Anonmoly305.999
Mean Motion15.62748591
Decay Rate-8.855E-05
L11 45203U 20012AB 20093.91667824 -.00008855 00000-0 -90990-4 0 9995
L22 45203 52.9998 44.5726 0001300 65.6398 305.9990 15.62748591 1629

Live tracking and technical data element details for STARLINK-1204 (NORAD 45203). STARLINK-1204 can be tracked NOW for your location showing map with azimuth and elevation plus other details from your city location.

Track the satellite on the map from your city or location and see movement details for azimuth, elevation, latitude, longitude, range, height, and movement on the map or in text.







IsCatalogInMostPopularTable: catalog: 45203, numindb: 8
Update: records affected: 1



GetName: 45203 STARLINK-1204

Hit Count: updated at: Tue, 07 Apr 2020 16:19:48 GMT